Retour au catalogue

ONEWEB-0237

ActifCommunicationsPO
NORAD 48770·PAYLOAD·🇬🇧 United Kingdom

Lancé May 28, 2021 depuis Vostochny Cosmodrome

Loading…

Prochains Passages (prochaines 24 heures)

TLE

FraisSource: CelesTrak SupGP

Époque: Sep 14, 2026, 11:11 UTC

1 48770C 21045D   26257.46646251 -.00000381  00000+0 -10129-2 0  2579
2 48770  87.8980 241.4008 0001707  85.1973  16.7080 13.15549413    14

Suivez ONEWEB-0237 en temps réel avec AllMySat

Download on the App Store